Simultaneous Nadir Overpasses (SNOs) Predictions

Prediction of SNOs between METOP-B and NOAA-19 Satellite Orbit:

Table of predicted SNOs for the next 14.0 days since TLE Epoch: 6/29/2019
Index Date (METOP-B) Time (METOP-B) Lat,Lon (METOP-B) SZA (METOP-B ) Date (NOAA-19) Time (NOAA-19) Lat,Lon (NOAA-19) SZA (NOAA-19 ) Distance(km) Time Diff (sec)
1 07/05/2019 06:48:25 79.36, 94.42 56.92 07/05/2019 06:47:19 79.34, 94.36 56.88 2.74 66
2 07/05/2019 07:39:07 -79.34, -98.42 123.11 07/05/2019 07:38:24 -79.33, -98.36 123.12 1.37 43
3 07/05/2019 08:29:47 79.35, 68.97 56.91 07/05/2019 08:29:20 79.34, 68.81 56.89 3.28 27
4 07/05/2019 09:20:29 -79.32,-123.87 123.13 07/05/2019 09:20:25 -79.34,-123.91 123.11 1.90 4
5 07/05/2019 10:11:09 79.33, 43.52 56.89 07/05/2019 10:11:20 79.32, 43.54 56.88 1.51 11
6 07/05/2019 11:01:51 -79.31,-149.32 123.14 07/05/2019 11:02:25 -79.31,-149.19 123.12 2.72 34
7 07/05/2019 11:52:31 79.32, 18.08 56.88 07/05/2019 11:53:21 79.32, 17.99 56.89 1.92 50
8 07/05/2019 12:43:13 -79.29,-174.77 123.15 07/05/2019 12:44:26 -79.32,-174.74 123.11 2.78 73




NCC Satellite Simultaneous Nadir Overpasses (SNOs) Prediction Service
